This demonstration page uses our WeatherBlox Daily Observations layout. Learn more.

Left ArrowRight Arrow

39.92423, -83.80882

Hourly Observations for February 8, 2020

Temp ( °F °C ) Dew Point ( °F °C ) Humidity (%) Winds ( mph kmh ) Pressure ( in mb ) Visibility ( mi km ) Precip ( " mm )
12:56 am 00:56 Mostly Cloudy 25 -3.9 25 -3.9 100 100 SW 6 9 30.07 1018 10 16 N/A
1:56 am 01:56 Cloudy 27 -2.8 26 -3.3 96 96 SW 7 11 30.08 1019 9 14 N/A
2:56 am 02:56 Cloudy with Light Snow 26 -3.3 26 -3.3 100 100 SSW 7 11 30.09 1019 5 8 0.00 0.00
3:03 am 03:03 Cloudy with Light Snow 27 -3 27 -3 100 100 SSW 8 13 30.12 1020 4 6 0.00 0.00
3:14 am 03:14 Cloudy with Light Snow 27 -3 27 -3 100 100 SW 9 15 30.13 1020 3 4 0.00 0.00
3:23 am 03:23 Cloudy with Light Snow 27 -3 27 -3 100 100 SW 9 15 30.13 1020 1 2 0.00 0.00
3:41 am 03:41 Cloudy with Light Snow 27 -3 27 -3 100 100 SW 7 11 30.13 1020 3 5 0.00 0.00
3:56 am 03:56 Cloudy with Light Snow 26 -3.3 26 -3.3 100 100 SW 6 9 30.11 1020 3 5 0.00 0.00
4:05 am 04:05 Cloudy with Light Snow 27 -3 27 -3 100 100 SSW 8 13 30.13 1020 3 5 0.00 0.00
4:35 am 04:35 Cloudy with Light Snow 27 -3 27 -3 100 100 SSW 8 13 30.13 1020 3 5 0.00 0.00
4:56 am 04:56 Cloudy with Light Snow 27 -2.8 27 -2.8 100 100 SSW 6 9 30.11 1020 4 6 0.00 0.00
5:56 am 05:56 Cloudy with Light Snow 27 -2.8 27 -2.8 100 100 S 5 7 30.11 1020 8 13 0.00 0.00
6:56 am 06:56 Cloudy with Light Snow 27 -2.8 26 -3.3 96 96 S 5 7 30.12 1020 9 14 0.00 0.00
7:48 am 07:48 Cloudy with Light Snow 27 -3 27 -3 100 100 S 6 9 30.16 1021 2 2 0.00 0.00
7:53 am 07:53 Cloudy with Light Snow 27 -3 27 -3 100 100 S 5 7 30.16 1021 1 1 0.00 0.00
7:56 am 07:56 Cloudy with Light Snow 27 -2.8 27 -2.8 100 100 SSE 5 7 30.14 1021 1 1 0.00 0.00
7:59 am 07:59 Cloudy with Light Snow 27 -3 27 -3 100 100 S 6 9 30.16 1021 1 2 0.00 0.00
8:21 am 08:21 Cloudy with Light Snow 27 -3 27 -3 100 100 S 5 7 30.17 1022 2 3 0.00 0.00
8:31 am 08:31 Cloudy with Light Snow 27 -3 27 -3 100 100 SSE 6 9 30.17 1022 1 2 0.00 0.00
8:43 am 08:43 Cloudy with Light Snow 27 -3 27 -3 100 100 SSE 7 11 30.17 1022 2 3 0.00 0.00
8:56 am 08:56 Cloudy with Light Snow 27 -2.8 27 -2.8 100 100 SSE 8 13 30.15 1021 1 2 0.00 0.00
8:58 am 08:58 Cloudy with Light Snow 27 -3 27 -3 100 100 SSE 7 11 30.17 1022 1 2 0.00 0.00
9:09 am 09:09 Cloudy with Light Snow 27 -3 27 -3 100 100 SSE 7 11 30.17 1022 1 1 0.00 0.00
9:19 am 09:19 Cloudy with Light Snow 28 -2 28 -2 100 100 SSE 7 11 30.16 1021 1 2 0.00 0.00
9:25 am 09:25 Cloudy with Light Snow 28 -2 28 -2 100 100 SSE 7 11 30.16 1021 2 3 0.00 0.00
9:31 am 09:31 Cloudy with Light Snow 28 -2 28 -2 100 100 SSE 8 13 30.16 1021 3 5 0.00 0.00
9:43 am 09:43 Cloudy with Light Snow 28 -2 28 -2 100 100 SSE 7 11 30.16 1021 2 3 0.00 0.00
9:56 am 09:56 Cloudy with Light Snow 28 -2.2 28 -2.2 100 100 SSE 7 11 30.14 1021 3 4 0.00 0.00
10:06 am 10:06 Cloudy with Light Snow 28 -2 28 -2 100 100 SSE 9 15 30.16 1021 3 5 0.00 0.00
10:29 am 10:29 Cloudy with Light Snow 28 -2 28 -2 100 100 SSE 8 13 30.16 1021 2 3 0.00 0.00
10:46 am 10:46 Cloudy with Light Snow 28 -2 28 -2 100 100 SSE 8 13 30.16 1021 5 8 0.00 0.00
10:56 am 10:56 Cloudy with Light Snow 29 -1.7 28 -2.2 96 96 SSE 7 11 30.14 1021 5 8 0.00 0.00
11:16 am 11:16 Cloudy with Light Snow 28 -2 28 -2 100 100 S 7 11 30.17 1022 3 4 0.00 0.00
11:30 am 11:30 Cloudy with Light Snow 28 -2 28 -2 100 100 SSE 8 13 30.16 1021 2 2 0.00 0.00
11:42 am 11:42 Cloudy with Light Snow 30 -1 28 -2 93 93 S 7 11 30.16 1021 2 3 0.00 0.00
11:56 am 11:56 Cloudy with Light Snow 30 -1.1 29 -1.7 96 96 S 7 11 30.15 1021 3 4 0.00 0.00
12:17 pm 12:17 Cloudy with Light Snow 30 -1 28 -2 93 93 S 6 9 30.17 1022 2 2 0.00 0.00
12:56 pm 12:56 Cloudy with Light Snow 30 -1.1 29 -1.7 96 96 SSW 7 11 30.15 1021 3 4 0.00 0.00
1:09 pm 13:09 Cloudy with Light Snow 30 -1 30 -1 100 100 SW 7 11 30.16 1021 2 2 0.00 0.00
1:42 pm 13:42 Cloudy with Light Snow 30 -1 30 -1 100 100 SSW 6 9 30.16 1021 2 3 0.00 0.00
1:47 pm 13:47 Cloudy with Light Snow 30 -1 30 -1 100 100 SSW 6 9 30.16 1021 2 3 0.00 0.00
1:56 pm 13:56 Cloudy with Light Snow 31 -0.6 30 -1.1 96 96 SW 5 7 30.14 1021 2 3 0.00 0.00
2:03 pm 14:03 Cloudy with Light Snow 30 -1 30 -1 100 100 SSW 6 9 30.16 1021 3 5 0.00 0.00
2:35 pm 14:35 Cloudy with Light Snow 32 undefined 30 -1 93 93 WSW 7 11 30.16 1021 7 11 0.00 0.00
2:56 pm 14:56 Cloudy 32 undefined 31 -0.6 96 96 SW 6 9 30.15 1021 10 16 0.00 0.00
3:05 pm 15:05 Cloudy 32 undefined 30 -1 93 93 WSW 7 11 30.16 1021 10 16 N/A
3:33 pm 15:33 Cloudy 32 undefined 30 -1 93 93 W 7 11 30.17 1022 10 16 N/A
3:56 pm 15:56 Cloudy with Light Wintry Mix 32 undefined 30 -1.1 92 92 WSW 8 13 30.17 1022 10 16 0.00 0.00
4:56 pm 16:56 Cloudy with Light Snow 32 undefined 31 -0.6 96 96 WSW 5 7 30.20 1023 9 14 0.00 0.00
5:37 pm 17:37 Cloudy with Light Snow 32 undefined 30 -1 93 93 SW 5 7 30.22 1023 9 14 0.00 0.00
5:56 pm 17:56 Cloudy with Light Snow 32 undefined 31 -0.6 96 96 WSW 7 11 30.22 1024 6 10 0.00 0.00
6:39 pm 18:39 Cloudy with Light Snow 30 -1 30 -1 100 100 WSW 8 13 30.26 1025 7 11 0.00 0.00
6:56 pm 18:56 Cloudy with Light Snow 31 -0.6 31 -0.6 100 100 WSW 8 13 30.24 1024 6 10 0.00 0.00
7:28 pm 19:28 Cloudy with Light Snow 30 -1 30 -1 100 100 WNW 6 9 30.27 1025 6 10 0.00 0.00
7:36 pm 19:36 Cloudy with Light Snow 30 -1 30 -1 100 100 WNW 7 11 30.27 1025 7 11 0.00 0.00
7:56 pm 19:56 Cloudy with Light Wintry Mix 31 -0.6 31 -0.6 100 100 WSW 7 11 30.26 1025 10 16 0.00 0.00
8:38 pm 20:38 Cloudy with Light Snow 30 -1 30 -1 100 100 SW 7 11 30.29 1026 7 11 0.00 0.00
8:56 pm 20:56 Cloudy 31 -0.6 30 -1.1 96 96 W 13 20 30.27 1025 10 16 0.00 0.00
9:56 pm 21:56 Mostly Cloudy 27 -2.8 27 -2.8 100 100 WSW 6 9 30.29 1026 10 16 0.00 0.00
10:07 pm 22:07 Mostly Cloudy 28 -2 28 -2 100 100 SW 6 9 30.32 1027 10 16 N/A
10:22 pm 22:22 Mostly Cloudy 28 -2 28 -2 100 100 SSW 6 9 30.32 1027 10 16 N/A
10:31 pm 22:31 Cloudy 28 -2 28 -2 100 100 SSW 6 9 30.32 1027 9 14 N/A
10:56 pm 22:56 Cloudy 28 -2.2 28 -2.2 100 100 SW 6 9 30.31 1026 9 14 N/A
11:20 pm 23:20 Cloudy 28 -2 28 -2 100 100 SW 3 6 30.33 1027 9 14 N/A
11:56 pm 23:56 Cloudy 28 -2.2 28 -2.2 100 100 N N/A 30.31 1027 8 13 N/A

Powered by AerisWeather